Torna al catalogo

AAU CUBESAT

AttivoScienzaSSO
NORAD 27846·PAYLOAD·🇩🇰 Denmark

Lanciato Jun 30, 2003 da Plesetsk Cosmodrome

Loading…

Prossimi Passaggi (prossime 24 ore)

TLE

AggiornatoSource: Space-Track

Epoca: Sep 14, 2026, 10:54 UTC

1 27846U 03031G   26257.45474373  .00000144  00000-0  81742-4 0  9998
2 27846  98.6881 264.8922 0008038 262.9592  97.0672 14.23998093204393

Traccia AAU CUBESAT in tempo reale con AllMySat

Download on the App Store